TimeEST,TemperatureF,Dew PointF,Humidity,Sea Level PressureIn,VisibilityMPH,Wind Direction,Wind SpeedMPH,Gust SpeedMPH,PrecipitationIn,Events,Conditions,WindDirDegrees,DateUTC
12:52 AM,41.0,19.0,41,30.18,10.0,Calm,Calm,-,N/A,,Clear,0,2012-12-15 05:52:00
1:52 AM,44.1,19.9,38,30.17,10.0,East,3.5,-,N/A,,Clear,90,2012-12-15 06:52:00
2:52 AM,44.1,21.0,40,30.15,10.0,East,5.8,-,N/A,,Clear,100,2012-12-15 07:52:00
3:52 AM,46.0,19.9,35,30.14,10.0,ESE,5.8,-,N/A,,Clear,110,2012-12-15 08:52:00
4:52 AM,46.0,21.0,37,30.14,10.0,ESE,4.6,-,N/A,,Clear,110,2012-12-15 09:52:00
5:52 AM,39.9,23.0,51,30.17,10.0,East,3.5,-,N/A,,Clear,100,2012-12-15 10:52:00
6:52 AM,37.9,24.1,57,30.17,10.0,North,4.6,-,N/A,,Clear,10,2012-12-15 11:52:00
7:52 AM,41.0,23.0,49,30.15,10.0,Variable,3.5,-,N/A,,Clear,0,2012-12-15 12:52:00
8:52 AM,45.0,23.0,42,30.17,10.0,Calm,Calm,-,N/A,,Clear,0,2012-12-15 13:52:00
9:52 AM,48.0,24.1,39,30.18,10.0,East,3.5,-,N/A,,Clear,80,2012-12-15 14:52:00
10:52 AM,48.9,25.0,39,30.16,10.0,East,3.5,-,N/A,,Clear,100,2012-12-15 15:52:00
11:52 AM,54.0,21.9,29,30.12,10.0,SE,4.6,-,N/A,,Clear,130,2012-12-15 16:52:00
12:52 PM,55.9,21.0,26,30.07,10.0,SE,5.8,-,N/A,,Partly Cloudy,130,2012-12-15 17:52:00
1:52 PM,55.9,21.0,26,30.06,10.0,SSE,6.9,-,N/A,,Partly Cloudy,150,2012-12-15 18:52:00
2:52 PM,55.0,21.9,28,30.03,10.0,SSE,4.6,-,N/A,,Scattered Clouds,150,2012-12-15 19:52:00
3:52 PM,55.9,21.0,26,30.02,10.0,SSE,6.9,-,N/A,,Mostly Cloudy,150,2012-12-15 20:52:00
4:52 PM,53.1,21.0,29,30.01,10.0,SE,8.1,-,N/A,,Scattered Clouds,130,2012-12-15 21:52:00
5:52 PM,51.1,24.1,35,30.02,10.0,Variable,4.6,-,N/A,,Partly Cloudy,0,2012-12-15 22:52:00
6:52 PM,51.1,25.0,36,30.04,10.0,Variable,6.9,-,N/A,,Overcast,0,2012-12-15 23:52:00
7:52 PM,50.0,26.1,39,30.01,10.0,SSE,10.4,18.4,0.00,,Overcast,150,2012-12-16 00:52:00
8:52 PM,48.9,27.0,43,30.00,10.0,SSE,11.5,19.6,N/A,,Overcast,160,2012-12-16 01:52:00
9:52 PM,50.0,27.0,41,29.97,10.0,SE,8.1,16.1,N/A,,Overcast,140,2012-12-16 02:52:00
10:52 PM,48.9,28.0,44,29.96,10.0,SSE,8.1,-,N/A,,Mostly Cloudy,150,2012-12-16 03:52:00
11:52 PM,48.9,28.9,46,29.97,10.0,South,5.8,-,N/A,,Mostly Cloudy,180,2012-12-16 04:52:00